TJS-9

导读

TJS-9是中国于2021年12月29日发射的国产卫星,隶属于我国航天技术试验卫星系列。这类卫星主要承担空间技术验证、空间环境探测等任务,为我国后续航天器研制、新技术应用提供在轨实验数据支撑。作为我国航天领域技术探索的重要节点,TJS-9的成功入轨,进一步推动我国空间科学技术迭代,助力航天工程体系能力提升,延续了中国航天探索太空的稳健步伐。

基本信息
目录编号:
50574
目录名称:
TJS-9
国际标识:
2021-135A
轨道中心:
EARTH
卫星名称:
TJS-9
卫星全名:
--
卫星状态:
在轨 (已飞行1635 天)
发射日期:
2021-12-29 UTC
国别 :
中国 (CN)
星等 :
--
轨道信息
数据来源 国际轨道数据 AOE轨道数据
星历时间 2026-06-21T12:50:39+0800
6小时前
查看轨道信息
2026-06-21T16:00:00+0800
2小时前
查看轨道信息
半长轴 42164.336km 42164.14km
偏心率 0.0003643 0.000385
轨道倾角 0.036° 0.036°
近地点辐角 185.924° 201.615°
升交点赤经 226.237° 213.509°
平近点角 67.113° 111.622°
近地点 35770.838km 35769.769km
远地点 35801.56km 35802.237km
周期 1436.077分钟 1436.067分钟
每日圈数 1.002732 1.002739
详细信息
使用方式:
暂无
2D轨道图
3D轨道图
轨道高度分析图
轨道倾角分析图
轨道综合分析图
查看轨道综合分析图